Location: White Ridge parking lot
(35.4984°N, 106.8413°W)
Time: 00:23:03
(UTC-06:00)

ITAMSAT 1 - Visible Passes

Search period start: 17 September 2019 00:00
Search period end: 27 September 2019 00:00
Orbit: 783 x 797 km, 98.9° (Epoch: 15 September)

Date Brightness Start Highest point End Pass type
(mag) Time Alt. Az. Time Alt. Az. Time Alt. Az.
17 Sep 10.7 05:07:45 10° ENE 05:10:06 13° E 05:12:28 10° ESE visible
18 Sep 8.1 06:15:21 10° NNE 06:20:31 68° ESE 06:25:39 10° S visible
19 Sep 9.5 05:46:20 10° NNE 05:51:00 34° E 05:55:39 10° SSE visible
20 Sep 10.5 05:18:03 10° NE 05:21:22 17° E 05:24:42 10° SE visible
21 Sep 7.8 06:26:28 10° NNE 06:31:41 86° ESE 06:36:52 10° SSW visible
22 Sep 9.0 05:57:17 10° NNE 06:02:13 43° E 06:07:07 10° S visible
23 Sep 10.2 05:28:39 10° NE 05:32:38 22° E 05:36:36 10° SE visible
24 Sep 10.9 05:01:59 10° E 05:02:55 10° E 05:03:52 10° ESE visible
25 Sep 8.5 06:08:19 10° NNE 06:13:24 56° E 06:18:29 10° S visible
26 Sep 9.8 05:39:26 10° NE 05:43:52 28° E 05:48:17 10° SSE visible
